Retour au catalogue

STARLINK-30104

ActifCommunicationsVLEO
NORAD 56300·PAYLOAD·🇺🇸 United States

Lancé Apr 19, 2023 depuis Cape Canaveral Space Force Station

Loading…

Prochains Passages (prochaines 24 heures)

TLE

FraisSource: CelesTrak SupGP

Époque: Sep 14, 2026, 14:05 UTC

1 56300C 23056Q   26257.58729167 -.00028345  00000+0 -10270-2 0  2579
2 56300  43.0029 222.2958 0001344 271.0095 228.6456 15.27582974    14

Suivez STARLINK-30104 en temps réel avec AllMySat

Download on the App Store